Location: Newark
(48.2500°N, 10.3333°E)
Time: 21:28:30
(UTC+00:00)

Starlink Launch 2 leader - Visible Passes

Search period start: 07 December 2019 00:00
Search period end: 17 December 2019 00:00
Orbit: 279 x 281 km, 53.0° (Epoch: 13 November)

Date Brightness Start Highest point End Pass type
(mag) Time Alt. Az. Time Alt. Az. Time Alt. Az.
07 Dec 2.1 05:16:05 66° WSW 05:16:15 71° SSW 05:18:42 10° SE visible
08 Dec 3.0 05:18:06 37° SW 05:18:08 37° SW 05:20:27 10° SE visible
09 Dec 4.0 05:20:11 21° SSW 05:20:11 21° SSW 05:21:56 10° SSE visible
10 Dec 4.9 05:22:20 12° SSW 05:22:20 12° SSW 05:22:51 10° SSW visible
